Flag for Greece Weather past 2 weeks in Thessaloniki, Greece

Now
48 °F

Fog.


Feels Like: 48 °F
Forecast: 34 / 51 °F
Wind: 2 mph from North

Location: Thessaloniki Airport

Current Time: Dec 18, 2014 at 2:54:26 PM

Latest Report: Dec 18, 2014 at 1:50 PM


Visibility: 1 mi

Pressure: 30.01 "Hg

Humidity: 100%

Dew point: 48 °F

Location of ThessalonikiLocation

Historic Weather in Thessaloniki — Graph

°F

Thessaloniki temperature yesterday

Maximum temperature yesterday: 52 °F (at 11:50 AM)
Minimum temperature yesterday: 46 °F (at 1:20 AM)
Average temperature yesterday: 49 °F

Past Weeks' High & Low Weather Summary

 TemperatureHumidityPressure
High63 °F (Dec 4, 12:50 PM)100% (Dec 6, 10:20 AM)30.33 "Hg (Dec 6, 10:20 AM)
Low36 °F (Dec 15, 7:50 AM)55% (Dec 12, 3:20 PM)29.65 "Hg (Dec 9, 3:50 AM)
Average50 °F88%30.04 "Hg
* Reported Dec 3 1:50 PM — Dec 18 1:20 PM, Thessaloniki, Weather by CustomWeather, © 2014

Note: Actual official high and low records may vary slightly from our data, if they occured in-between our weather recording intervals... More about our weather records

Advertising

Thessaloniki weather history for previous 24 hours

 ConditionsComfort  
Time TempWeatherWind HumidityBarometerVisibility
1:20 PM
Dec 18
48 °FFog.2 mph94%30.01 "Hg1 mi
12:50 PM48 °FFog.2 mph94%30.04 "Hg1 mi
12:20 PM46 °FFog.1 mph100%30.04 "Hg1 mi
11:50 AM46 °FFog.2 mph100%30.04 "Hg1 mi
11:20 AM46 °FFog.3 mph93%30.04 "Hg0 mi
10:50 AM46 °FFog.7 mph100%30.04 "Hg0 mi
10:20 AM46 °FFog.6 mph100%30.04 "Hg0 mi
9:50 AM46 °FFog.No wind93%30.04 "Hg0 mi
9:20 AM46 °FFog.2 mph93%30.01 "Hg0 mi
8:50 AM46 °FFog.2 mph93%30.01 "Hg0 mi
8:20 AM46 °FFog.No wind93%30.01 "Hg1 mi
7:50 AM46 °FFog.5 mph100%29.98 "Hg1 mi
7:20 AM46 °FFog.5 mph93%29.98 "Hg1 mi
6:50 AM46 °FSnow. Overcast.3 mph93%29.98 "Hg1 mi
6:20 AM46 °FFog.3 mph100%29.95 "Hg1 mi
5:20 AM46 °FFog.2 mph100%29.95 "Hg0 mi
4:50 AM46 °FFog.3 mph100%29.95 "Hg0 mi
4:20 AM46 °FFog.3 mph100%29.95 "Hg0 mi
3:50 AM48 °FFog.2 mph94%29.95 "Hg0 mi
3:20 AM48 °FFog.No wind94%29.95 "Hg0 mi
2:50 AM48 °FFog.2 mph94%29.95 "Hg0 mi
2:20 AM48 °FFog.1 mph94%29.95 "Hg0 mi
1:50 AM48 °FFog.No wind100%29.95 "Hg0 mi
12:50 AM50 °FFog.1 mph94%29.95 "Hg0 mi
12:20 AM50 °FFog.2 mph94%29.95 "Hg0 mi
11:50 PM
Dec 17
50 °FFog.No wind94%29.98 "Hg0 mi
11:20 PM50 °FFog.No wind94%29.95 "Hg1 mi
10:50 PM50 °FFog.3 mph94%29.95 "Hg1 mi
10:20 PM48 °FFog.8 mph100%29.95 "Hg1 mi
9:50 PM50 °FFog.5 mph94%29.95 "Hg1 mi
9:20 PM50 °FFog.2 mph94%29.95 "Hg2 mi
8:50 PM50 °FFog.No wind94%29.95 "Hg2 mi
8:20 PM50 °FFog.6 mph100%29.95 "Hg3 mi
7:50 PM50 °FFog.3 mph94%29.98 "Hg2 mi
7:20 PM50 °FFog.2 mph94%29.95 "Hg2 mi
6:50 PM50 °FFog.2 mph94%29.98 "Hg2 mi
6:20 PM50 °FFog.5 mph94%29.95 "Hg2 mi
5:50 PM50 °FFog.3 mph94%29.95 "Hg2 mi
5:20 PM52 °FFog.5 mph94%29.95 "Hg2 mi
4:50 PM52 °FFog.6 mph94%29.95 "Hg2 mi
4:20 PM52 °FFog.5 mph94%29.95 "Hg2 mi
3:50 PM52 °FFog.3 mph94%29.95 "Hg2 mi
3:20 PM52 °FLight rain. Fog.5 mph88%29.95 "Hg2 mi
2:50 PM52 °FMixture of precip. Fog.2 mph88%29.95 "Hg3 mi
2:20 PM52 °FSnow. Fog.5 mph88%29.95 "Hg3 mi
Weather by CustomWeather, © 2014

See weather overviewHow to use our weather pages